Overview Statistics Trail Chart Weather Telemetry Raw packets
 

This is the latest recevied weather packets stored in our database for station/object KK6MIG-13. If no packets are shown the sender has not sent any weather packets the latest 10 day(s).

<< 378 379 380 381 382 383 384 >>
Time Temp. Humidity Pressure Rain* Wind** Luminosity Snow
1788126408 15° C 11% 1012.7 hPa 0 mm - 515 W/m² -
1788126348 15° C 12% 1012.7 hPa 0 mm - 526 W/m² -
1788126288 15° C 12% 1012.7 hPa 0 mm - 557 W/m² -
1788126228 15.56° C 7% 1012.7 hPa 0 mm - 478 W/m² -
1788126163 15° C 7% 1012.7 hPa 0 mm - 471 W/m² -
1788126102 15° C 5% 1012.7 hPa 0 mm - 475 W/m² -
1788126042 15° C 7% 1012.8 hPa 0 mm - 510 W/m² -
1788125982 15° C 7% 1012.8 hPa 0 mm - 515 W/m² -
1788125922 15° C 8% 1012.7 hPa 0 mm - 471 W/m² -
1788125857 15° C 2% 1012.8 hPa 0 mm - 570 W/m² -
1788125796 15° C 3% 1012.8 hPa 0 mm - 548 W/m² -
1788125736 15° C 5% 1012.8 hPa 0 mm - 550 W/m² -
1788125677 15° C 6% 1012.8 hPa 0 mm - 571 W/m² -
1788125615 15° C 10% 1012.8 hPa 0 mm - 543 W/m² -
1788125550 15° C 10% 1012.8 hPa 0 mm - 543 W/m² -
1788125490 15° C 10% 1012.8 hPa 0 mm - 575 W/m² -
1788125431 15° C 6% 1012.8 hPa 0 mm - 575 W/m² -
1788125370 15° C 5% 1012.9 hPa 0 mm - 575 W/m² -
1788125310 15° C 5% 1012.9 hPa 0 mm - 619 W/m² -
1788125245 15° C 6% 1013 hPa 0 mm - 570 W/m² -
1788125184 15° C 6% 1012.9 hPa 0 mm - 608 W/m² -
1788125124 15° C 8% 1012.9 hPa 0 mm - 510 W/m² -
1788125064 15° C 11% 1012.9 hPa 0 mm - 570 W/m² -
1788125004 15° C 11% 1012.9 hPa 0 mm - 538 W/m² -
1788124939 15° C 8% 1012.9 hPa 0 mm - 654 W/m² -

* Rain latest hour (hover to see other rain measurements)
** Current wind speed in m/s (hover to see current wind gust speed)